Wind_Speed
42 45 49 51 55 59 63 65 68 67 66 68 72 75 79 84 88 91 94 96 99 101 101 100 97 91 85 79 75 72 67 61 56 51 47 46 45 47
44 47 51 56 60 63 67 67 68 70 71 74 77 82 86 90 93 96 98 102 103 101 96 90 85 81 78 76 73 68 63 58 54 53 47 46 45 47
47 51 55 60 64 65 67 67 70 73 75 77 82 86 89 92 96 100 103 101 97 91 86 82 79 75 70 64 57 53 51 50 49 50 50 46 47 48
51 55 60 63 65 66 67 70 73 76 80 82 85 88 93 98 102 99 97 92 87 81 77 74 67 62 59 58 56 55 52 48 44 42 46 49 49 49
55 59 62 64 64 66 70 72 76 80 84 86 90 94 98 99 94 90 84 79 78 73 66 64 63 63 61 58 54 52 51 49 47 43 40 49 52 51
59 62 63 63 66 69 72 77 80 83 87 91 96 97 94 88 83 79 73 71 66 65 65 62 53 49 48 47 45 44 44 43 43 41 43 43 53 53
62 61 63 66 69 73 77 81 83 87 92 97 96 90 81 76 74 71 67 65 59 51 45 43 43 46 47 46 44 42 42 43 45 43 42 46 48 57
59 62 66 69 73 77 80 83 88 93 97 95 86 78 74 72 68 65 58 51 42 32 31 38 45 43 40 36 34 34 33 33 36 41 45 47 48 57
60 65 68 72 76 79 82 87 92 95 90 83 75 72 70 66 63 53 42 37 31 31 34 37 42 38 36 30 29 31 30 29 26 30 42 48 50 53
64 67 71 75 78 81 86 90 92 88 79 72 70 67 63 57 49 41 37 32 31 34 34 34 37 31 26 28 29 30 29 29 26 25 29 44 51 53
67 70 74 76 80 85 88 91 88 77 70 67 63 59 52 46 41 37 33 30 29 31 32 32 34 26 23 25 28 29 30 29 27 24 24 32 50 55
69 73 75 79 83 87 91 87 76 67 64 59 55 45 37 35 32 30 27 26 26 25 29 26 28 25 17 23 24 25 26 26 22 21 23 25 40 54
70 73 77 81 85 89 85 75 66 62 57 51 43 31 28 27 28 27 26 23 23 22 20 21 23 25 23 18 22 21 20 20 18 17 17 19 27 48
71 75 79 84 87 83 73 64 60 55 48 41 29 24 23 25 25 24 23 21 21 24 26 25 23 23 23 21 19 19 18 16 15 13 12 13 18 38
75 78 82 85 82 73 64 58 55 46 39 27 23 19 21 21 22 22 22 21 20 22 25 24 23 22 21 21 19 16 17 15 14 12 8 8 12 28
77 80 83 80 72 61 56 54 45 40 28 21 19 18 20 23 25 24 24 24 23 21 21 23 23 23 23 22 20 19 16 14 13 13 9 5 7 19
77 80 78 70 61 55 54 46 41 33 22 19 19 21 24 28 28 27 26 25 23 22 22 21 22 21 21 22 21 20 18 16 13 11 10 6 7 13
77 74 67 59 52 52 47 40 36 26 20 20 21 24 27 28 30 29 27 25 25 25 23 19 20 20 19 20 19 20 20 19 16 13 9 7 7 12
73 66 58 50 49 48 40 37 30 22 21 21 23 25 27 28 30 28 27 25 25 23 22 22 19 20 20 19 19 20 20 20 17 15 11 7 4 9
65 56 48 46 47 41 36 34 25 20 20 20 23 25 27 28 29 27 25 25 25 24 22 20 18 19 20 19 19 18 18 18 17 14 12 7 2 0
56 46 43 45 42 35 34 28 23 21 20 22 24 25 27 28 28 26 25 23 22 22 22 20 18 17 17 17 17 17 17 16 16 14 10 8 2 2
44 41 43 41 35 32 28 24 22 20 20 22 23 25 27 28 26 24 24 26 25 23 21 19 18 16 16 15 15 15 15 15 15 14 10 7 4 1
39 41 41 37 31 27 25 23 20 19 20 21 24 26 27 26 26 26 26 24 22 20 19 17 17 16 15 14 12 12 13 14 14 12 10 5 3 1
Wind_Direction
289 291 292 295 299 301 302 302 302 302 304 304 304 303 304 305 305 305 304 302 301 299 296 292 291 292 292 291 289 287 284 280 275 269 261 253 247 240
292 294 297 300 302 303 302 303 304 305 307 307 307 307 307 306 306 306 304 303 299 296 295 296 295 294 294 292 290 288 285 280 272 264 257 247 241 236
295 297 300 302 303 304 304 306 307 308 309 309 309 308 308 308 307 306 303 299 297 297 298 297 297 295 293 291 289 285 281 275 268 257 248 242 236 233
297 301 303 304 304 305 306 307 309 309 309 309 310 310 310 309 307 303 300 299 299 299 297 296 296 294 292 289 287 283 279 276 270 263 248 236 232 228
300 303 304 303 305 306 308 309 310 309 310 311 312 312 311 308 305 303 303 302 301 300 300 298 296 293 290 287 283 281 276 272 266 259 253 236 228 224
303 303 302 304 307 309 310 310 310 311 313 314 314 312 310 307 306 305 303 303 304 302 300 299 297 294 291 288 285 283 277 272 266 256 245 240 226 222
302 303 305 308 310 310 310 311 313 314 315 315 313 312 311 308 307 308 308 306 304 303 302 302 301 299 293 290 286 283 280 275 264 253 244 235 228 219
304 306 309 311 310 311 313 314 316 316 315 315 315 314 313 312 312 311 310 309 307 300 307 314 309 305 296 292 291 292 292 283 268 252 240 233 226 219
306 310 310 310 311 314 315 318 318 318 317 315 315 315 316 315 314 315 315 315 309 303 311 315 313 305 299 293 292 293 299 301 291 262 240 229 224 220
310 309 310 313 315 316 319 319 318 317 316 316 317 318 318 318 319 319 315 314 310 310 314 318 318 308 297 295 292 293 298 301 300 287 258 231 221 219
308 311 313 314 316 319 318 317 318 318 320 320 320 321 322 324 324 322 321 320 319 315 319 324 332 321 300 299 298 300 299 303 308 299 282 242 222 216
312 313 315 318 318 317 318 319 320 321 320 320 321 325 330 336 338 338 335 332 329 326 331 330 341 351 321 304 308 313 319 314 310 296 278 258 226 214
313 316 317 316 317 319 320 322 321 320 320 322 325 328 336 347 353 355 355 353 348 353 0 353 352 352 357 350 334 329 320 314 306 298 285 267 237 215
314 314 316 318 319 321 322 322 320 320 321 324 325 334 343 346 352 355 358 358 351 345 344 344 344 345 348 349 347 345 346 334 315 309 295 271 241 217
314 316 318 320 322 323 321 320 320 320 322 320 330 336 343 348 350 352 351 352 357 353 355 354 350 349 346 350 346 343 349 345 336 327 309 275 236 219
316 318 320 322 322 320 318 319 320 320 317 317 325 328 333 335 337 337 339 344 346 349 353 353 358 359 357 356 355 354 347 340 347 338 334 294 235 222
319 320 321 321 320 319 320 321 320 317 311 311 316 323 326 327 327 326 322 322 327 332 338 343 350 354 355 357 359 0 359 354 348 339 343 304 237 224
320 321 321 319 318 319 321 320 319 312 304 305 313 318 320 325 328 329 329 324 316 313 316 322 330 339 349 354 357 359 1 359 356 351 344 331 250 222
320 320 318 317 318 320 319 318 314 304 307 302 307 315 322 327 330 328 328 326 326 323 316 305 306 315 326 338 342 349 357 359 357 354 351 355 314 223
319 317 316 317 320 319 317 316 309 298 302 309 314 319 323 325 329 329 329 329 328 331 329 324 311 300 304 312 322 333 342 350 356 357 355 352 331 320
316 315 316 319 320 317 315 312 305 295 299 308 315 318 323 325 326 326 327 329 329 328 326 329 325 318 308 302 303 311 322 335 349 359 359 3 342 241
314 316 319 320 318 316 313 308 302 301 298 306 314 319 322 324 324 325 325 324 324 323 323 323 322 326 321 314 308 301 306 317 331 348 1 4 11 280
315 319 320 320 317 315 314 310 299 302 302 305 311 317 320 322 323 325 325 324 324 325 324 324 320 320 318 321 316 309 302 304 314 328 345 356 359 332
Height
5711 5707 5704 5699 5693 5687 5680 5673 5666 5661 5656 5644 5633 5623 5611 5601 5590 5579 5566 5553 5539 5527 5515 5504 5494 5485 5479 5475 5471 5467 5466 5467 5470 5473 5477 5482 5487 5493
5699 5695 5691 5685 5679 5672 5665 5656 5647 5639 5634 5625 5614 5602 5592 5580 5567 5554 5541 5527 5511 5496 5483 5474 5466 5460 5455 5449 5446 5445 5444 5445 5448 5453 5459 5465 5471 5478
5689 5684 5678 5672 5664 5656 5649 5640 5630 5620 5614 5608 5595 5582 5570 5556 5543 5527 5510 5496 5483 5471 5460 5450 5442 5438 5433 5428 5426 5425 5425 5425 5427 5432 5439 5448 5454 5462
5678 5672 5665 5657 5649 5642 5633 5623 5613 5602 5595 5589 5576 5563 5547 5530 5516 5501 5485 5469 5457 5449 5440 5431 5425 5419 5415 5411 5410 5408 5408 5410 5412 5415 5422 5430 5438 5447
5665 5658 5651 5644 5636 5627 5617 5607 5597 5587 5575 5565 5555 5539 5524 5504 5491 5474 5462 5449 5436 5427 5419 5412 5407 5402 5397 5393 5391 5390 5390 5392 5395 5400 5405 5412 5421 5431
5652 5645 5638 5630 5622 5612 5601 5591 5581 5569 5555 5542 5529 5515 5497 5481 5464 5452 5446 5428 5420 5409 5401 5393 5389 5384 5380 5377 5376 5375 5374 5375 5378 5382 5388 5395 5404 5414
5639 5632 5623 5614 5604 5594 5585 5574 5561 5549 5534 5521 5506 5491 5475 5462 5447 5435 5423 5414 5405 5394 5389 5381 5378 5372 5366 5364 5362 5360 5358 5358 5360 5365 5370 5377 5386 5396
5625 5617 5608 5598 5590 5579 5567 5555 5541 5526 5513 5497 5481 5467 5454 5441 5429 5417 5406 5398 5393 5385 5382 5376 5365 5360 5354 5352 5350 5348 5346 5343 5343 5346 5352 5360 5370 5380
5612 5603 5594 5585 5575 5563 5551 5535 5520 5504 5488 5475 5462 5448 5436 5423 5414 5404 5395 5388 5382 5378 5375 5369 5358 5351 5344 5343 5341 5339 5337 5334 5332 5332 5335 5344 5355 5365
5598 5591 5581 5569 5558 5547 5534 5519 5504 5489 5474 5459 5445 5434 5423 5412 5401 5394 5388 5383 5377 5370 5366 5361 5351 5343 5339 5336 5334 5331 5329 5327 5325 5324 5324 5330 5340 5350
5586 5576 5566 5556 5543 5531 5520 5505 5489 5472 5456 5443 5432 5421 5411 5402 5394 5388 5382 5376 5372 5364 5359 5353 5346 5339 5334 5330 5327 5325 5323 5322 5320 5318 5317 5318 5325 5336
5572 5562 5552 5539 5528 5517 5503 5487 5471 5458 5447 5436 5425 5414 5406 5399 5391 5384 5378 5372 5367 5362 5356 5350 5343 5337 5332 5327 5324 5321 5319 5317 5315 5313 5311 5310 5314 5325
5559 5548 5537 5527 5514 5499 5483 5468 5456 5447 5436 5427 5418 5411 5405 5398 5390 5383 5376 5371 5365 5359 5355 5349 5344 5337 5332 5327 5321 5318 5315 5312 5310 5307 5306 5305 5307 5316
5545 5536 5524 5511 5496 5481 5468 5457 5447 5437 5428 5421 5415 5409 5402 5396 5389 5383 5377 5371 5366 5360 5354 5349 5344 5338 5333 5328 5323 5318 5314 5310 5306 5304 5303 5302 5304 5309
5530 5520 5508 5494 5479 5466 5457 5448 5438 5429 5422 5416 5411 5406 5401 5395 5389 5383 5378 5372 5366 5360 5354 5349 5343 5338 5333 5328 5323 5319 5314 5311 5306 5303 5302 5301 5303 5307
5515 5504 5491 5477 5467 5458 5449 5439 5430 5423 5417 5413 5408 5403 5398 5393 5388 5383 5377 5371 5366 5361 5356 5350 5344 5339 5333 5328 5323 5319 5315 5311 5308 5304 5303 5302 5304 5308
5501 5488 5475 5464 5454 5446 5438 5429 5422 5416 5412 5409 5404 5400 5395 5390 5385 5380 5374 5369 5365 5360 5355 5350 5345 5340 5335 5330 5325 5320 5316 5312 5309 5306 5304 5303 5305 5308
5486 5474 5463 5454 5445 5436 5428 5421 5416 5411 5407 5404 5400 5396 5392 5387 5381 5375 5370 5365 5360 5356 5353 5349 5345 5341 5336 5332 5327 5322 5318 5314 5310 5307 5305 5304 5304 5307
5472 5462 5453 5444 5436 5428 5421 5415 5409 5406 5403 5400 5396 5393 5388 5382 5377 5371 5366 5361 5356 5352 5348 5344 5342 5339 5335 5331 5327 5323 5320 5316 5312 5309 5307 5305 5304 5306
5460 5451 5442 5435 5427 5420 5414 5409 5404 5401 5399 5395 5392 5388 5384 5379 5373 5368 5363 5358 5353 5348 5344 5340 5337 5334 5332 5329 5326 5323 5320 5317 5314 5311 5308 5307 5306 5306
5447 5440 5433 5425 5418 5413 5408 5403 5399 5396 5394 5391 5388 5384 5380 5375 5369 5364 5359 5355 5351 5346 5341 5337 5334 5330 5328 5325 5323 5321 5319 5317 5315 5312 5309 5308 5307 5307
5437 5431 5424 5417 5411 5406 5402 5397 5394 5392 5390 5387 5384 5380 5375 5370 5366 5361 5356 5352 5347 5343 5339 5335 5331 5328 5325 5322 5320 5319 5317 5316 5314 5313 5311 5309 5308 5308
5429 5423 5416 5410 5405 5401 5397 5393 5390 5388 5385 5383 5380 5376 5371 5366 5361 5357 5352 5347 5343 5339 5335 5332 5329 5325 5323 5320 5318 5316 5314 5313 5313 5312 5311 5310 5309 5309